Time,TemperatureF,DewpointF,PressureIn,WindDirection,WindDirectionDegrees,WindSpeedMPH,WindSpeedGustMPH,Humidity,HourlyPrecipIn,Conditions,Clouds,dailyrainin,SoftwareType,DateUTC
2013-01-05 00:02:00,24.3,19.3,30.22,WSW,248,10.0,11.0,81,0.00,,,0.00,Wunderground v.1.15,2013-01-05 05:02:00,
2013-01-05 00:07:00,24.3,19.6,30.22,SW,233,10.0,12.0,82,0.00,,,0.00,Wunderground v.1.15,2013-01-05 05:07:00,
2013-01-05 00:12:00,24.3,19.6,30.22,WSW,245,10.0,12.0,82,0.00,,,0.00,Wunderground v.1.15,2013-01-05 05:12:00,
2013-01-05 00:17:00,24.3,19.6,30.22,WSW,247,10.0,10.0,82,0.00,,,0.00,Wunderground v.1.15,2013-01-05 05:17:00,
2013-01-05 00:27:00,24.0,19.3,30.22,WSW,245,10.0,10.0,82,0.00,,,0.00,Wunderground v.1.15,2013-01-05 05:27:00,
2013-01-05 00:32:00,24.1,19.4,30.22,WSW,242,10.0,11.0,82,0.00,,,0.00,Wunderground v.1.15,2013-01-05 05:32:00,
2013-01-05 00:42:00,24.1,19.4,30.23,WSW,244,11.0,11.0,82,0.00,,,0.00,Wunderground v.1.15,2013-01-05 05:42:00,
2013-01-05 00:47:00,24.1,19.4,30.23,WSW,248,10.0,10.0,82,0.00,,,0.00,Wunderground v.1.15,2013-01-05 05:47:00,
2013-01-05 00:52:00,23.8,19.1,30.23,WSW,248,10.0,10.0,82,0.00,,,0.00,Wunderground v.1.15,2013-01-05 05:52:00,
2013-01-05 00:57:00,24.0,19.3,30.23,WSW,250,10.0,10.0,82,0.00,,,0.00,Wunderground v.1.15,2013-01-05 05:57:00,
2013-01-05 01:02:00,23.6,18.9,30.23,WSW,245,10.0,10.0,82,0.00,,,0.00,Wunderground v.1.15,2013-01-05 06:02:00,
2013-01-05 01:12:00,23.5,19.1,30.23,WSW,249,10.0,12.0,83,0.00,,,0.00,Wunderground v.1.15,2013-01-05 06:12:00,
2013-01-05 01:17:00,23.4,19.0,30.23,WSW,249,10.0,10.0,83,0.00,,,0.00,Wunderground v.1.15,2013-01-05 06:17:00,
2013-01-05 01:22:00,23.4,19.0,30.23,West,259,10.0,11.0,83,0.00,,,0.00,Wunderground v.1.15,2013-01-05 06:22:00,
2013-01-05 01:27:00,23.4,19.0,30.23,WSW,248,10.0,10.0,83,0.00,,,0.00,Wunderground v.1.15,2013-01-05 06:27:00,
2013-01-05 01:37:00,23.5,19.1,30.23,WSW,248,11.0,12.0,83,0.00,,,0.00,Wunderground v.1.15,2013-01-05 06:37:00,
2013-01-05 01:42:00,23.7,19.3,30.23,WSW,249,11.0,12.0,83,0.00,,,0.00,Wunderground v.1.15,2013-01-05 06:42:00,
2013-01-05 01:52:00,23.4,19.0,30.23,WSW,250,11.0,11.0,83,0.00,,,0.00,Wunderground v.1.15,2013-01-05 06:52:00,
2013-01-05 01:57:00,23.3,18.9,30.24,WSW,246,10.0,12.0,83,0.00,,,0.00,Wunderground v.1.15,2013-01-05 06:57:00,
2013-01-05 02:07:00,23.2,18.8,30.24,WSW,248,10.0,10.0,83,0.00,,,0.00,Wunderground v.1.15,2013-01-05 07:07:00,
2013-01-05 02:12:00,23.0,18.6,30.24,WSW,243,10.0,10.0,83,0.00,,,0.00,Wunderground v.1.15,2013-01-05 07:12:00,
2013-01-05 02:22:00,23.1,19.0,30.25,WSW,243,10.0,12.0,84,0.00,,,0.00,Wunderground v.1.15,2013-01-05 07:22:00,
2013-01-05 02:27:00,23.0,18.9,30.25,WSW,242,10.0,14.0,84,0.00,,,0.00,Wunderground v.1.15,2013-01-05 07:27:00,
2013-01-05 02:32:00,23.1,18.7,30.26,SW,235,10.0,14.0,83,0.00,,,0.00,Wunderground v.1.15,2013-01-05 07:32:00,
2013-01-05 02:42:00,23.1,18.7,30.26,WSW,244,10.0,13.0,83,0.00,,,0.00,Wunderground v.1.15,2013-01-05 07:42:00,
2013-01-05 02:47:00,23.1,18.7,30.26,WSW,245,10.0,10.0,83,0.00,,,0.00,Wunderground v.1.15,2013-01-05 07:47:00,
2013-01-05 02:52:00,23.0,18.6,30.26,WSW,248,9.0,11.0,83,0.00,,,0.00,Wunderground v.1.15,2013-01-05 07:52:00,
2013-01-05 03:02:00,22.9,18.5,30.27,WSW,242,9.0,9.0,83,0.00,,,0.00,Wunderground v.1.15,2013-01-05 08:02:00,
2013-01-05 03:12:00,22.9,18.8,30.27,WSW,248,9.0,10.0,84,0.00,,,0.00,Wunderground v.1.15,2013-01-05 08:12:00,
2013-01-05 03:17:00,22.9,18.8,30.27,WSW,244,9.0,9.0,84,0.00,,,0.00,Wunderground v.1.15,2013-01-05 08:17:00,
2013-01-05 03:27:00,22.5,18.1,30.27,WSW,247,8.0,8.0,83,0.00,,,0.00,Wunderground v.1.15,2013-01-05 08:27:00,
2013-01-05 03:32:00,22.6,18.5,30.27,WSW,245,7.0,8.0,84,0.00,,,0.00,Wunderground v.1.15,2013-01-05 08:32:00,
2013-01-05 03:42:00,22.1,17.7,30.26,WSW,246,6.0,8.0,83,0.00,,,0.00,Wunderground v.1.15,2013-01-05 08:42:00,
2013-01-05 03:47:00,21.7,17.3,30.27,WSW,246,5.0,5.0,83,0.00,,,0.00,Wunderground v.1.15,2013-01-05 08:47:00,
2013-01-05 03:57:00,21.2,17.1,30.27,WSW,245,4.0,6.0,84,0.00,,,0.00,Wunderground v.1.15,2013-01-05 08:57:00,
2013-01-05 04:07:00,21.2,17.4,30.28,WSW,244,4.0,4.0,85,0.00,,,0.00,Wunderground v.1.15,2013-01-05 09:07:00,
2013-01-05 04:12:00,21.1,17.3,30.27,WSW,244,3.0,4.0,85,0.00,,,0.00,Wunderground v.1.15,2013-01-05 09:12:00,
2013-01-05 04:17:00,20.9,17.1,30.27,WSW,244,3.0,3.0,85,0.00,,,0.00,Wunderground v.1.15,2013-01-05 09:17:00,
2013-01-05 04:27:00,20.9,17.4,30.27,WSW,244,3.0,3.0,86,0.00,,,0.00,Wunderground v.1.15,2013-01-05 09:27:00,
2013-01-05 04:32:00,20.7,16.9,30.27,WSW,244,3.0,3.0,85,0.00,,,0.00,Wunderground v.1.15,2013-01-05 09:32:00,
2013-01-05 04:37:00,20.6,16.8,30.27,WSW,244,3.0,3.0,85,0.00,,,0.00,Wunderground v.1.15,2013-01-05 09:37:00,
2013-01-05 04:42:00,20.0,15.9,30.28,WSW,244,3.0,3.0,84,0.00,,,0.00,Wunderground v.1.15,2013-01-05 09:42:00,
2013-01-05 04:52:00,19.4,15.6,30.28,WSW,244,3.0,4.0,85,0.00,,,0.00,Wunderground v.1.15,2013-01-05 09:52:00,
2013-01-05 04:57:00,19.4,15.9,30.29,WSW,243,4.0,4.0,86,0.00,,,0.00,Wunderground v.1.15,2013-01-05 09:57:00,
2013-01-05 05:07:00,19.2,15.7,30.28,WSW,242,4.0,4.0,86,0.00,,,0.00,Wunderground v.1.15,2013-01-05 10:07:00,
2013-01-05 05:17:00,19.3,16.1,30.29,WSW,238,3.0,5.0,87,0.00,,,0.00,Wunderground v.1.15,2013-01-05 10:17:00,
2013-01-05 05:22:00,19.1,15.6,30.29,WSW,238,4.0,5.0,86,0.00,,,0.00,Wunderground v.1.15,2013-01-05 10:22:00,
2013-01-05 05:32:00,19.4,16.2,30.29,SW,232,4.0,4.0,87,0.00,,,0.00,Wunderground v.1.15,2013-01-05 10:32:00,
2013-01-05 05:37:00,19.6,16.4,30.29,SW,227,4.0,4.0,87,0.00,,,0.00,Wunderground v.1.15,2013-01-05 10:37:00,
2013-01-05 05:47:00,20.1,16.9,30.28,SW,227,4.0,4.0,87,0.00,,,0.00,Wunderground v.1.15,2013-01-05 10:47:00,
2013-01-05 05:52:00,20.0,16.8,30.28,SW,227,3.0,4.0,87,0.00,,,0.00,Wunderground v.1.15,2013-01-05 10:52:00,
2013-01-05 06:02:00,19.0,15.2,30.28,SW,227,4.0,4.0,85,0.00,,,0.00,Wunderground v.1.15,2013-01-05 11:02:00,
2013-01-05 06:07:00,18.7,15.2,30.28,SW,227,4.0,4.0,86,0.00,,,0.00,Wunderground v.1.15,2013-01-05 11:07:00,
2013-01-05 06:12:00,18.6,15.4,30.29,SW,227,3.0,4.0,87,0.00,,,0.00,Wunderground v.1.15,2013-01-05 11:12:00,
2013-01-05 06:22:00,18.7,15.5,30.29,SW,227,4.0,5.0,87,0.00,,,0.00,Wunderground v.1.15,2013-01-05 11:22:00,
2013-01-05 06:27:00,18.5,15.3,30.29,SW,219,4.0,5.0,87,0.00,,,0.00,Wunderground v.1.15,2013-01-05 11:27:00,
2013-01-05 06:32:00,18.7,15.5,30.29,SSW,213,5.0,5.0,87,0.00,,,0.00,Wunderground v.1.15,2013-01-05 11:32:00,
2013-01-05 06:42:00,19.0,15.8,30.29,SSW,212,5.0,5.0,87,0.00,,,0.00,Wunderground v.1.15,2013-01-05 11:42:00,
2013-01-05 06:47:00,19.4,16.2,30.30,SW,217,5.0,6.0,87,0.00,,,0.00,Wunderground v.1.15,2013-01-05 11:47:00,
2013-01-05 06:57:00,19.5,16.3,30.30,SW,218,5.0,5.0,87,0.00,,,0.00,Wunderground v.1.15,2013-01-05 11:57:00,
2013-01-05 07:07:00,19.8,16.6,30.30,SW,223,6.0,6.0,87,0.00,,,0.00,Wunderground v.1.15,2013-01-05 12:07:00,
2013-01-05 07:12:00,19.9,16.4,30.30,SW,221,6.0,6.0,86,0.00,,,0.00,Wunderground v.1.15,2013-01-05 12:12:00,
2013-01-05 07:22:00,20.2,16.7,30.31,SW,221,7.0,9.0,86,0.00,,,0.00,Wunderground v.1.15,2013-01-05 12:22:00,
2013-01-05 07:27:00,20.4,16.9,30.31,SW,225,7.0,7.0,86,0.00,,,0.00,Wunderground v.1.15,2013-01-05 12:27:00,
2013-01-05 07:37:00,20.5,17.0,30.30,SW,234,6.0,7.0,86,0.00,,,0.00,Wunderground v.1.15,2013-01-05 12:37:00,
2013-01-05 07:42:00,20.4,16.9,30.30,SW,232,5.0,7.0,86,0.00,,,0.00,Wunderground v.1.15,2013-01-05 12:42:00,
2013-01-05 07:52:00,20.2,16.7,30.30,SW,231,5.0,5.0,86,0.00,,,0.00,Wunderground v.1.15,2013-01-05 12:52:00,
2013-01-05 07:57:00,20.1,16.6,30.30,SW,229,4.0,5.0,86,0.00,,,0.00,Wunderground v.1.15,2013-01-05 12:57:00,
2013-01-05 08:07:00,20.3,16.8,30.30,SW,219,5.0,5.0,86,0.00,,,0.00,Wunderground v.1.15,2013-01-05 13:07:00,
2013-01-05 08:12:00,20.5,17.0,30.30,SW,215,5.0,5.0,86,0.00,,,0.00,Wunderground v.1.15,2013-01-05 13:12:00,
2013-01-05 08:17:00,20.7,17.2,30.30,SW,215,5.0,5.0,86,0.00,,,0.00,Wunderground v.1.15,2013-01-05 13:17:00,
2013-01-05 08:22:00,20.9,17.4,30.30,SSW,213,5.0,5.0,86,0.00,,,0.00,Wunderground v.1.15,2013-01-05 13:22:00,
2013-01-05 08:32:00,21.0,17.5,30.30,SSW,212,5.0,5.0,86,0.00,,,0.00,Wunderground v.1.15,2013-01-05 13:32:00,
2013-01-05 08:37:00,20.8,17.0,30.30,SSW,211,5.0,5.0,85,0.00,,,0.00,Wunderground v.1.15,2013-01-05 13:37:00,
2013-01-05 08:47:00,20.8,17.0,30.31,SW,216,4.0,7.0,85,0.00,,,0.00,Wunderground v.1.15,2013-01-05 13:47:00,
2013-01-05 08:52:00,21.2,17.7,30.31,SW,219,5.0,7.0,86,0.00,,,0.00,Wunderground v.1.15,2013-01-05 13:52:00,
2013-01-05 09:02:00,21.9,18.1,30.31,SW,217,5.0,8.0,85,0.00,,,0.00,Wunderground v.1.15,2013-01-05 14:02:00,
2013-01-05 09:12:00,22.4,18.6,30.31,SW,218,5.0,5.0,85,0.00,,,0.00,Wunderground v.1.15,2013-01-05 14:12:00,
2013-01-05 09:17:00,22.7,18.6,30.31,SW,218,5.0,5.0,84,0.00,,,0.00,Wunderground v.1.15,2013-01-05 14:17:00,
2013-01-05 09:22:00,22.9,18.8,30.31,SW,218,3.0,5.0,84,0.00,,,0.00,Wunderground v.1.15,2013-01-05 14:22:00,
2013-01-05 09:32:00,23.5,19.4,30.31,SSW,213,4.0,6.0,84,0.00,,,0.00,Wunderground v.1.15,2013-01-05 14:32:00,
2013-01-05 09:37:00,23.8,19.4,30.31,SSW,206,5.0,5.0,83,0.00,,,0.00,Wunderground v.1.15,2013-01-05 14:37:00,
2013-01-05 09:47:00,23.6,18.9,30.31,SSW,210,6.0,8.0,82,0.00,,,0.00,Wunderground v.1.15,2013-01-05 14:47:00,
2013-01-05 09:52:00,23.7,19.3,30.31,SSW,211,6.0,8.0,83,0.00,,,0.00,Wunderground v.1.15,2013-01-05 14:52:00,
2013-01-05 10:02:00,24.1,19.4,30.31,SSW,209,6.0,6.0,82,0.00,,,0.00,Wunderground v.1.15,2013-01-05 15:02:00,
2013-01-05 10:12:00,24.5,19.8,30.31,SSW,212,6.0,7.0,82,0.00,,,0.00,Wunderground v.1.15,2013-01-05 15:12:00,
2013-01-05 10:17:00,24.8,20.1,30.31,SSW,210,5.0,5.0,82,0.00,,,0.00,Wunderground v.1.15,2013-01-05 15:17:00,
2013-01-05 10:27:00,25.4,20.4,30.30,SSW,212,4.0,6.0,81,0.00,,,0.00,Wunderground v.1.15,2013-01-05 15:27:00,
2013-01-05 10:32:00,25.7,20.7,30.30,SSW,213,5.0,6.0,81,0.00,,,0.00,Wunderground v.1.15,2013-01-05 15:32:00,
2013-01-05 10:42:00,26.1,20.8,30.31,SSW,211,4.0,4.0,80,0.00,,,0.00,Wunderground v.1.15,2013-01-05 15:42:00,
2013-01-05 10:47:00,26.4,20.8,30.30,SSW,211,4.0,4.0,79,0.00,,,0.00,Wunderground v.1.15,2013-01-05 15:47:00,
2013-01-05 10:52:00,26.7,21.1,30.30,SSW,211,4.0,4.0,79,0.00,,,0.00,Wunderground v.1.15,2013-01-05 15:52:00,
2013-01-05 11:02:00,27.4,21.4,30.30,SSW,213,4.0,5.0,78,0.00,,,0.00,Wunderground v.1.15,2013-01-05 16:02:00,
2013-01-05 11:12:00,27.7,21.7,30.29,SSW,213,5.0,6.0,78,0.00,,,0.00,Wunderground v.1.15,2013-01-05 16:12:00,
2013-01-05 11:17:00,28.0,22.0,30.29,SSW,205,6.0,6.0,78,0.00,,,0.00,Wunderground v.1.15,2013-01-05 16:17:00,
2013-01-05 11:22:00,28.0,21.7,30.29,SSW,200,6.0,6.0,77,0.00,,,0.00,Wunderground v.1.15,2013-01-05 16:22:00,
2013-01-05 11:32:00,27.9,21.3,30.28,SSW,197,7.0,8.0,76,0.00,,,0.00,Wunderground v.1.15,2013-01-05 16:32:00,
2013-01-05 11:37:00,28.2,21.9,30.28,SSW,197,7.0,7.0,77,0.00,,,0.00,Wunderground v.1.15,2013-01-05 16:37:00,
2013-01-05 11:47:00,28.6,22.3,30.27,SSW,210,6.0,6.0,77,0.00,,,0.00,Wunderground v.1.15,2013-01-05 16:47:00,
2013-01-05 11:52:00,28.8,22.5,30.27,SW,215,6.0,6.0,77,0.00,,,0.00,Wunderground v.1.15,2013-01-05 16:52:00,
2013-01-05 12:02:00,29.0,22.4,30.26,SSW,207,6.0,7.0,76,0.00,,,0.00,Wunderground v.1.15,2013-01-05 17:02:00,
2013-01-05 12:12:00,29.3,22.4,30.26,SSW,196,6.0,7.0,75,0.00,,,0.00,Wunderground v.1.15,2013-01-05 17:12:00,
2013-01-05 12:17:00,29.4,22.5,30.25,SSW,192,6.0,7.0,75,0.00,,,0.00,Wunderground v.1.15,2013-01-05 17:17:00,
2013-01-05 12:27:00,29.7,22.7,30.25,SSW,205,7.0,7.0,75,0.00,,,0.00,Wunderground v.1.15,2013-01-05 17:27:00,
2013-01-05 12:32:00,29.8,22.8,30.25,SSW,205,7.0,7.0,75,0.00,,,0.00,Wunderground v.1.15,2013-01-05 17:32:00,
2013-01-05 12:37:00,29.6,22.6,30.24,South,187,7.0,8.0,75,0.00,,,0.00,Wunderground v.1.15,2013-01-05 17:37:00,
2013-01-05 12:47:00,29.2,22.6,30.23,South,184,8.0,8.0,76,0.00,,,0.00,Wunderground v.1.15,2013-01-05 17:47:00,
2013-01-05 12:52:00,29.4,22.8,30.22,South,182,8.0,8.0,76,0.00,,,0.00,Wunderground v.1.15,2013-01-05 17:52:00,
2013-01-05 13:02:00,30.1,22.8,30.21,South,188,6.0,8.0,74,0.00,,,0.00,Wunderground v.1.15,2013-01-05 18:02:00,
2013-01-05 13:07:00,30.2,23.2,30.21,SSW,192,6.0,7.0,75,0.00,,,0.00,Wunderground v.1.15,2013-01-05 18:07:00,
2013-01-05 13:17:00,30.1,23.1,30.20,South,191,6.0,7.0,75,0.00,,,0.00,Wunderground v.1.15,2013-01-05 18:17:00,
2013-01-05 13:22:00,30.0,23.0,30.20,SSW,192,7.0,7.0,75,0.00,,,0.00,Wunderground v.1.15,2013-01-05 18:22:00,
2013-01-05 13:32:00,30.7,24.0,30.20,SSW,209,6.0,8.0,76,0.00,,,0.00,Wunderground v.1.15,2013-01-05 18:32:00,
2013-01-05 13:37:00,31.2,24.5,30.20,SSW,212,6.0,6.0,76,0.00,,,0.00,Wunderground v.1.15,2013-01-05 18:37:00,
2013-01-05 13:42:00,31.5,24.2,30.21,SSW,202,7.0,9.0,74,0.00,,,0.00,Wunderground v.1.15,2013-01-05 18:42:00,
2013-01-05 13:47:00,31.8,24.5,30.21,SSW,199,7.0,7.0,74,0.00,,,0.00,Wunderground v.1.15,2013-01-05 18:47:00,
2013-01-05 13:57:00,32.3,24.6,30.20,SW,220,6.0,6.0,73,0.00,,,0.00,Wunderground v.1.15,2013-01-05 18:57:00,
2013-01-05 14:02:00,32.7,25.0,30.20,SW,218,6.0,6.0,73,0.00,,,0.00,Wunderground v.1.15,2013-01-05 19:02:00,
2013-01-05 14:12:00,32.6,24.6,30.19,SW,226,8.0,11.0,72,0.00,,,0.00,Wunderground v.1.15,2013-01-05 19:12:00,
2013-01-05 14:21:00,33.0,25.0,30.18,SSW,204,7.0,9.0,72,0.00,,,0.00,Wunderground v.1.15,2013-01-05 19:21:00,
2013-01-05 14:31:00,32.3,24.6,30.17,SW,215,7.0,7.0,73,0.00,,,0.00,Wunderground v.1.15,2013-01-05 19:31:00,
2013-01-05 14:36:00,32.6,25.2,30.17,SSW,213,6.0,6.0,74,0.00,,,0.00,Wunderground v.1.15,2013-01-05 19:36:00,
2013-01-05 14:46:00,32.6,24.9,30.17,South,190,6.0,6.0,73,0.00,,,0.00,Wunderground v.1.15,2013-01-05 19:46:00,
2013-01-05 14:51:00,32.5,24.8,30.17,South,176,6.0,7.0,73,0.00,,,0.00,Wunderground v.1.15,2013-01-05 19:51:00,
2013-01-05 14:56:00,32.4,25.0,30.17,South,178,7.0,7.0,74,0.00,,,0.00,Wunderground v.1.15,2013-01-05 19:56:00,
2013-01-05 15:06:00,32.2,24.8,30.17,SSW,193,8.0,8.0,74,0.00,,,0.00,Wunderground v.1.15,2013-01-05 20:06:00,
2013-01-05 15:11:00,32.2,25.2,30.16,South,189,8.0,11.0,75,0.00,,,0.00,Wunderground v.1.15,2013-01-05 20:11:00,
2013-01-05 15:21:00,32.1,25.1,30.16,South,180,7.0,7.0,75,0.00,,,0.00,Wunderground v.1.15,2013-01-05 20:21:00,
2013-01-05 15:26:00,32.0,24.6,30.16,South,190,7.0,7.0,74,0.00,,,0.00,Wunderground v.1.15,2013-01-05 20:26:00,
2013-01-05 15:36:00,31.9,24.6,30.16,SSW,200,8.0,8.0,74,0.00,,,0.00,Wunderground v.1.15,2013-01-05 20:36:00,
2013-01-05 15:41:00,31.9,24.6,30.16,SSW,192,8.0,10.0,74,0.00,,,0.00,Wunderground v.1.15,2013-01-05 20:41:00,
2013-01-05 15:46:00,31.9,24.6,30.16,South,190,9.0,9.0,74,0.00,,,0.00,Wunderground v.1.15,2013-01-05 20:46:00,
2013-01-05 15:51:00,31.9,24.6,30.15,SSW,199,8.0,9.0,74,0.00,,,0.00,Wunderground v.1.15,2013-01-05 20:51:00,
2013-01-05 16:06:00,31.9,24.9,30.15,SSW,201,6.0,6.0,75,0.00,,,0.00,Wunderground v.1.15,2013-01-05 21:06:00,
2013-01-05 16:11:00,31.9,25.2,30.15,SSW,206,5.0,7.0,76,0.00,,,0.00,Wunderground v.1.15,2013-01-05 21:11:00,
2013-01-05 16:16:00,32.0,25.3,30.15,SSW,209,6.0,7.0,76,0.00,,,0.00,Wunderground v.1.15,2013-01-05 21:16:00,
2013-01-05 16:26:00,31.9,25.2,30.15,SSW,206,6.0,6.0,76,0.00,,,0.00,Wunderground v.1.15,2013-01-05 21:26:00,
2013-01-05 16:31:00,31.8,25.1,30.15,SSW,210,6.0,7.0,76,0.00,,,0.00,Wunderground v.1.15,2013-01-05 21:31:00,
2013-01-05 16:36:00,31.7,25.3,30.15,SW,215,5.0,7.0,77,0.00,,,0.00,Wunderground v.1.15,2013-01-05 21:36:00,
2013-01-05 16:46:00,31.7,25.3,30.14,SSW,211,6.0,6.0,77,0.00,,,0.00,Wunderground v.1.15,2013-01-05 21:46:00,
2013-01-05 16:51:00,31.7,25.3,30.14,SSW,206,7.0,7.0,77,0.00,,,0.00,Wunderground v.1.15,2013-01-05 21:51:00,
2013-01-05 17:01:00,31.9,25.5,30.14,SSW,201,7.0,8.0,77,0.00,,,0.00,Wunderground v.1.15,2013-01-05 22:01:00,
2013-01-05 17:06:00,31.9,25.8,30.14,SSW,209,7.0,7.0,78,0.00,,,0.00,Wunderground v.1.15,2013-01-05 22:06:00,
2013-01-05 17:16:00,32.0,25.6,30.14,SSW,204,7.0,7.0,77,0.00,,,0.00,Wunderground v.1.15,2013-01-05 22:16:00,
2013-01-05 17:21:00,32.1,25.7,30.13,SSW,199,6.0,7.0,77,0.00,,,0.00,Wunderground v.1.15,2013-01-05 22:21:00,
2013-01-05 17:26:00,32.2,25.8,30.12,SSW,192,6.0,8.0,77,0.00,,,0.00,Wunderground v.1.15,2013-01-05 22:26:00,
2013-01-05 17:31:00,32.3,25.9,30.11,SSW,201,6.0,8.0,77,0.00,,,0.00,Wunderground v.1.15,2013-01-05 22:31:00,
2013-01-05 17:41:00,32.0,25.9,30.11,SW,214,5.0,7.0,78,0.00,,,0.00,Wunderground v.1.15,2013-01-05 22:41:00,
2013-01-05 17:46:00,32.0,25.9,30.12,SW,220,6.0,6.0,78,0.00,,,0.00,Wunderground v.1.15,2013-01-05 22:46:00,
2013-01-05 17:51:00,32.0,25.9,30.12,SSW,212,6.0,7.0,78,0.00,,,0.00,Wunderground v.1.15,2013-01-05 22:51:00,
2013-01-05 18:01:00,32.2,26.1,30.13,SSW,209,7.0,7.0,78,0.00,,,0.00,Wunderground v.1.15,2013-01-05 23:01:00,
2013-01-05 18:11:00,32.3,26.2,30.13,SW,215,7.0,9.0,78,0.00,,,0.00,Wunderground v.1.15,2013-01-05 23:11:00,
2013-01-05 18:21:00,32.3,26.2,30.13,SSW,203,7.0,7.0,78,0.00,,,0.00,Wunderground v.1.15,2013-01-05 23:21:00,
2013-01-05 18:26:00,32.3,26.5,30.13,SSW,211,7.0,7.0,79,0.00,,,0.00,Wunderground v.1.15,2013-01-05 23:26:00,
2013-01-05 18:36:00,32.7,26.6,30.13,SW,225,9.0,9.0,78,0.00,,,0.00,Wunderground v.1.15,2013-01-05 23:36:00,
2013-01-05 18:41:00,32.8,26.7,30.13,SSW,207,9.0,9.0,78,0.00,,,0.00,Wunderground v.1.15,2013-01-05 23:41:00,
2013-01-05 18:51:00,33.0,26.6,30.13,SW,232,8.0,9.0,77,0.00,,,0.00,Wunderground v.1.15,2013-01-05 23:51:00,
2013-01-05 18:56:00,33.0,26.6,30.12,SSW,213,9.0,10.0,77,0.00,,,0.00,Wunderground v.1.15,2013-01-05 23:56:00,
2013-01-05 19:06:00,33.5,26.7,30.13,SW,224,10.0,10.0,76,0.00,,,0.00,Wunderground v.1.15,2013-01-06 00:06:00,
2013-01-05 19:11:00,33.5,26.7,30.13,WSW,240,11.0,13.0,76,0.00,,,0.00,Wunderground v.1.15,2013-01-06 00:11:00,
2013-01-05 19:21:00,33.6,27.2,30.12,SW,226,10.0,14.0,77,0.00,,,0.00,Wunderground v.1.15,2013-01-06 00:21:00,
2013-01-05 19:26:00,33.5,27.1,30.11,SW,221,10.0,10.0,77,0.00,,,0.00,Wunderground v.1.15,2013-01-06 00:26:00,
2013-01-05 19:36:00,33.4,27.6,30.11,SW,222,10.0,11.0,79,0.00,,,0.00,Wunderground v.1.15,2013-01-06 00:36:00,
2013-01-05 19:41:00,33.4,27.6,30.11,SSW,208,10.0,12.0,79,0.00,,,0.00,Wunderground v.1.15,2013-01-06 00:41:00,
2013-01-05 19:46:00,33.5,28.0,30.11,SW,223,11.0,11.0,80,0.00,,,0.00,Wunderground v.1.15,2013-01-06 00:46:00,
2013-01-05 19:56:00,33.4,28.5,30.12,SW,223,10.0,14.0,82,0.00,,,0.00,Wunderground v.1.15,2013-01-06 00:56:00,
2013-01-05 20:01:00,33.3,28.7,30.12,SW,218,11.0,14.0,83,0.00,,,0.00,Wunderground v.1.15,2013-01-06 01:01:00,
2013-01-05 20:11:00,33.2,28.9,30.11,SSW,205,11.0,11.0,84,0.00,,,0.00,Wunderground v.1.15,2013-01-06 01:11:00,
2013-01-05 20:16:00,33.0,29.0,30.11,SW,223,11.0,12.0,85,0.00,,,0.00,Wunderground v.1.15,2013-01-06 01:16:00,
2013-01-05 20:21:00,32.9,28.9,30.11,SW,225,10.0,12.0,85,0.00,,,0.00,Wunderground v.1.15,2013-01-06 01:21:00,
2013-01-05 20:31:00,32.9,29.2,30.11,SW,228,10.0,10.0,86,0.00,,,0.00,Wunderground v.1.15,2013-01-06 01:31:00,
2013-01-05 20:36:00,32.8,29.1,30.11,SW,223,10.0,10.0,86,0.00,,,0.00,Wunderground v.1.15,2013-01-06 01:36:00,
2013-01-05 20:46:00,32.8,29.4,30.10,SW,224,8.0,9.0,87,0.00,,,0.00,Wunderground v.1.15,2013-01-06 01:46:00,
2013-01-05 20:51:00,32.8,29.4,30.10,SW,225,9.0,9.0,87,0.00,,,0.00,Wunderground v.1.15,2013-01-06 01:51:00,
2013-01-05 20:56:00,32.7,29.3,30.11,SW,225,9.0,10.0,87,0.00,,,0.00,Wunderground v.1.15,2013-01-06 01:56:00,
2013-01-05 21:06:00,32.8,29.4,30.11,SW,222,8.0,8.0,87,0.00,,,0.00,Wunderground v.1.15,2013-01-06 02:06:00,
2013-01-05 21:16:00,32.8,29.6,30.10,SW,225,9.0,9.0,88,0.00,,,0.00,Wunderground v.1.15,2013-01-06 02:16:00,
2013-01-05 21:21:00,32.8,29.6,30.10,SW,219,8.0,9.0,88,0.00,,,0.00,Wunderground v.1.15,2013-01-06 02:21:00,
2013-01-05 21:26:00,32.8,29.6,30.10,SW,223,8.0,10.0,88,0.00,,,0.00,Wunderground v.1.15,2013-01-06 02:26:00,
2013-01-05 21:31:00,32.7,29.5,30.10,SW,217,8.0,10.0,88,0.00,,,0.00,Wunderground v.1.15,2013-01-06 02:31:00,
2013-01-05 21:41:00,32.6,29.7,30.10,SW,221,7.0,8.0,89,0.00,,,0.00,Wunderground v.1.15,2013-01-06 02:41:00,
2013-01-05 21:46:00,32.6,29.7,30.10,SW,221,7.0,7.0,89,0.00,,,0.00,Wunderground v.1.15,2013-01-06 02:46:00,
2013-01-05 21:56:00,32.6,29.7,30.09,SW,219,6.0,6.0,89,0.00,,,0.00,Wunderground v.1.15,2013-01-06 02:56:00,
2013-01-05 22:06:00,32.7,29.8,30.09,SSW,210,7.0,7.0,89,0.00,,,0.00,Wunderground v.1.15,2013-01-06 03:06:00,
2013-01-05 22:11:00,32.7,29.8,30.09,SW,220,7.0,9.0,89,0.00,,,0.00,Wunderground v.1.15,2013-01-06 03:11:00,
2013-01-05 22:16:00,32.7,29.5,30.09,SW,217,7.0,9.0,88,0.00,,,0.00,Wunderground v.1.15,2013-01-06 03:16:00,
2013-01-05 22:26:00,32.8,29.6,30.09,SW,225,9.0,11.0,88,0.00,,,0.00,Wunderground v.1.15,2013-01-06 03:26:00,
2013-01-05 22:31:00,32.8,29.6,30.09,SW,215,9.0,11.0,88,0.00,,,0.00,Wunderground v.1.15,2013-01-06 03:31:00,
2013-01-05 22:36:00,32.9,29.7,30.09,SW,219,10.0,13.0,88,0.00,,,0.00,Wunderground v.1.15,2013-01-06 03:36:00,
2013-01-05 22:46:00,33.0,29.8,30.08,SW,221,10.0,11.0,88,0.00,,,0.00,Wunderground v.1.15,2013-01-06 03:46:00,
2013-01-05 22:51:00,33.0,29.8,30.08,SSW,210,9.0,11.0,88,0.00,,,0.00,Wunderground v.1.15,2013-01-06 03:51:00,
2013-01-05 22:56:00,33.0,29.8,30.08,SW,219,9.0,9.0,88,0.00,,,0.00,Wunderground v.1.15,2013-01-06 03:56:00,
2013-01-05 23:06:00,32.9,29.5,30.08,SW,226,8.0,8.0,87,0.00,,,0.00,Wunderground v.1.15,2013-01-06 04:06:00,
2013-01-05 23:16:00,32.9,29.7,30.08,SW,215,8.0,8.0,88,0.00,,,0.00,Wunderground v.1.15,2013-01-06 04:16:00,
2013-01-05 23:21:00,32.9,29.5,30.08,SSW,212,8.0,8.0,87,0.00,,,0.00,Wunderground v.1.15,2013-01-06 04:21:00,
2013-01-05 23:31:00,33.0,29.6,30.08,SW,220,8.0,11.0,87,0.00,,,0.00,Wunderground v.1.15,2013-01-06 04:31:00,
2013-01-05 23:36:00,32.9,29.5,30.08,SW,216,9.0,9.0,87,0.00,,,0.00,Wunderground v.1.15,2013-01-06 04:36:00,
2013-01-05 23:46:00,33.1,29.7,30.07,SW,223,10.0,13.0,87,0.00,,,0.00,Wunderground v.1.15,2013-01-06 04:46:00,
2013-01-05 23:51:00,33.2,29.8,30.07,SW,225,9.0,13.0,87,0.00,,,0.00,Wunderground v.1.15,2013-01-06 04:51:00,
2013-01-05 23:56:00,33.2,29.8,30.06,SSW,211,10.0,10.0,87,0.00,,,0.00,Wunderground v.1.15,2013-01-06 04:56:00,